OpenBCM V1.13 (Linux)

Packet Radio Mailbox

DB0FHN

[JN59NK Nuernberg]

 Login: GUEST





  
UA9FBV > KEPS     03.12.04 09:14l 151 Lines 3944 Bytes #999 (0) @ AMSAT
BID : ORB04337.O
Read: GUEST
Subj: Orbital Elements  04337.OSCAR
Path: DB0FHN<DB0RGB<OK0PPL<DB0RES<ER3KAZ<UA9FBV
Sent: 041203/0708Z @:UA9FBV.PRM.RUS.AS #:12124 [Perm] GATEWAY $:ORB04337.O
From: UA9FBV@UA9FBV.PRM.RUS.AS
To  : KEPS@AMSAT


HR AMSAT ORBITAL ELEMENTS FOR OSCAR SATELLITES
FROM WA5QGD FORT WORTH,TX December 2, 2004
SEND SUBSCRIBE/UNSUBSCRIBE TO majordomo@amsat.org ONLY
BID: ORB04337.O
TO ALL RADIO AMATEURS BT

Satellite: AO-07
Catalog number: 07530
Epoch time:      04336.71085858
Element set:     354
Inclination:      101.6590 deg
RA of node:        20.6812 deg
Eccentricity:    0.0012048
Arg of perigee:   257.5187 deg
Mean anomaly:     102.4537 deg
Mean motion:   12.53569731 rev/day
Decay rate:       -2.9e-07 rev/day^2
Epoch rev:           37490
Checksum:              293

Satellite: AO-10
Catalog number: 14129
Epoch time:      04337.61987519
Element set:     126
Inclination:       26.8553 deg
RA of node:        58.6578 deg
Eccentricity:    0.6032795
Arg of perigee:   145.5589 deg
Mean anomaly:     274.8028 deg
Mean motion:    2.05867929 rev/day
Decay rate:      .00000000 rev/day^2
Epoch rev:           16148
Checksum:              329

Satellite: UO-11
Catalog number: 14781
Epoch time:      04337.02109395
Element set:     650
Inclination:       98.1905 deg
RA of node:       324.7741 deg
Eccentricity:    0.0008081
Arg of perigee:   272.4972 deg
Mean anomaly:      87.5328 deg
Mean motion:   14.79093283 rev/day
Decay rate:       9.74e-06 rev/day^2
Epoch rev:           11265
Checksum:              314

Satellite: RS-10/11
Catalog number: 18129
Epoch time:      04337.22829631
Element set:     552
Inclination:       82.9288 deg
RA of node:        23.8297 deg
Eccentricity:    0.0010624
Arg of perigee:   207.8413 deg
Mean anomaly:     152.2172 deg
Mean motion:   13.72750138 rev/day
Decay rate:        8.9e-07 rev/day^2
Epoch rev:           87405
Checksum:              301

Satellite: FO-20
Catalog number: 20480
Epoch time:      04337.07038738
Element set:     756
Inclination:       99.0199 deg
RA of node:       182.7661 deg
Eccentricity:    0.0540363
Arg of perigee:   326.5240 deg
Mean anomaly:      30.2764 deg
Mean motion:   12.83344200 rev/day
Decay rate:        1.2e-07 rev/day^2
Epoch rev:           69421
Checksum:              283

Satellite: RS-12/13
Catalog number: 21089
Epoch time:      04337.76171941
Element set:     777
Inclination:       82.9250 deg
RA of node:        56.6646 deg
Eccentricity:    0.0027631
Arg of perigee:   267.4819 deg
Mean anomaly:      92.3202 deg
Mean motion:   13.74444257 rev/day
Decay rate:        3.8e-07 rev/day^2
Epoch rev:           69351
Checksum:              321

Satellite: RS-15
Catalog number: 23439
Epoch time:      04336.79945213
Element set:    0837
Inclination:      064.8199 deg
RA of node:       066.7742 deg
Eccentricity:    0.0158158
Arg of perigee:   351.1936 deg
Mean anomaly:     008.6222 deg
Mean motion:   11.27550430 rev/day
Decay rate:       -3.9e-07 rev/day^2
Epoch rev:           40913
Checksum:              315

Satellite: FO-29
Catalog number: 24278
Epoch time:      04337.26875384
Element set:     837
Inclination:       98.5763 deg
RA of node:        47.1535 deg
Eccentricity:    0.0350431
Arg of perigee:   326.5951 deg
Mean anomaly:      31.3507 deg
Mean motion:   13.52905402 rev/day
Decay rate:       -2.4e-07 rev/day^2
Epoch rev:           40956
Checksum:              314

Satellite: SO-33
Catalog number: 25509
Epoch time:      04337.24639000
Element set:     249
Inclination:       31.4324 deg
RA of node:        65.7424 deg
Eccentricity:    0.0356043
Arg of perigee:   244.6106 deg
Mean anomaly:     111.7306 deg
Mean motion:   14.27933345 rev/day
Decay rate:       5.95e-06 rev/day^2
Epoch rev:           31865
Checksum:              284

Satellite: AO-40
Catalog number: 26609
Epoch time:      04337.45653936
Element set:     463
Inclination:        9.2121 deg
RA of node:       331.9373 deg
Eccentricity:    0.7960547
Arg of perigee:   344.0079 deg
Mean anomaly:       0.9003 deg
Mean motion:    1.25582601 rev/day
Decay rate:      .00000000 rev/day^2
Epoch rev:            1878
Checksum:              276



Read previous mail | Read next mail


 13.09.2026 10:15:45lGo back Go up